Flag for Germany Weather past 2 weeks in Mainz, Rhineland-Palatinate, Germany

Now
86 °F

Sunny.


Feels Like: 89 °F
Forecast: 64 / 83 °F
Wind: 8 mph from East

Location: Wiesbaden Airport

Current Time: Jul 5, 2015 at 10:18:39 AM

Latest Report: Jul 5, 2015 at 9:58 AM


Visibility: N/A

Pressure: 30.00 "Hg

Humidity: 51%

Dew point: 66 °F

Location of MainzLocation

Historic Weather in Mainz — Graph

°F

Mainz temperature yesterday

Maximum temperature yesterday: 100 °F (at 5:58 PM)
Minimum temperature yesterday: 72 °F (at 4:58 AM)
Average temperature yesterday: 86 °F

Past Weeks' High & Low Weather Summary

 TemperatureHumidityPressure
High100 °F (Jul 4, 5:58 PM)100% (Jun 22, 12:59 AM)30.24 "Hg (Jun 22, 12:59 AM)
Low48 °F (Jun 23, 4:58 AM)25% (Jun 30, 6:58 PM)29.68 "Hg (Jun 23, 12:04 AM)
Average69 °F66%30.08 "Hg
* Reported Jun 20 8:04 AM — Jul 5 8:58 AM, Mainz, Weather by CustomWeather, © 2015

Note: Actual official high and low records may vary slightly from our data, if they occured in-between our weather recording intervals... More about our weather records

Advertising

Mainz weather history for previous 24 hours

 ConditionsComfort  
Time TempWeatherWind HumidityBarometerVisibility
8:58 AM
Sun, Jul 5
82 °FSunny.9 mph61%30.01 "HgN/A
7:58 AM79 °FSunny.3 mph63%30.03 "HgN/A
6:58 AM77 °FSunny.No wind69%30.03 "HgN/A
5:58 AM76 °FClear.2 mph67%30.03 "HgN/A
4:58 AM75 °FClear.No wind65%30.03 "HgN/A
3:58 AM77 °FPassing clouds.5 mph61%30.05 "HgN/A
2:58 AM75 °FPassing clouds.2 mph65%30.05 "HgN/A
1:58 AM76 °FPassing clouds.No wind65%30.05 "HgN/A
12:58 AM77 °FPartly cloudy.No wind61%30.06 "HgN/A
11:58 PM
Sat, Jul 4
79 °FPassing clouds.3 mph58%30.05 "HgN/A
10:58 PM79 °FClear.3 mph60%30.05 "HgN/A
9:58 PM86 °FSunny.6 mph46%30.05 "HgN/A
8:58 PM90 °FPassing clouds.3 mph40%30.05 "HgN/A
8:04 PM90 °FLight rain. Passing clouds.6 mph43%30.09 "HgN/A
7:58 PM90 °FSunny.6 mph41%30.07 "HgN/A
6:58 PM95 °FSunny.3 mph32%30.05 "HgN/A
5:58 PM100 °FSunny.3 mph27%30.03 "HgN/A
4:58 PM99 °FSunny.2 mph31%30.05 "HgN/A
3:58 PM98 °FSunny.2 mph31%30.06 "HgN/A
2:58 PM98 °FSunny.2 mph31%30.06 "HgN/A
1:58 PM95 °FSunny.8 mph34%30.07 "HgN/A
12:58 PM92 °FSunny.6 mph44%30.08 "HgN/A
11:58 AM90 °FSunny.8 mph49%30.09 "HgN/A
10:58 AM86 °FSunny.5 mph52%30.09 "HgN/A
Weather by CustomWeather, © 2015

See weather overviewHow to use our weather pages